Time,TemperatureF,DewpointF,PressureIn,WindDirection,WindDirectionDegrees,WindSpeedMPH,WindSpeedGustMPH,Humidity,HourlyPrecipIn,Conditions,Clouds,dailyrainin,SoftwareType,DateUTC
2013-04-26 00:02:00,56.7,41.2,30.09,South,177,10.0,12.0,56,0.00,,BKN250,0.00,VWS V14.01,2013-04-26 05:02:00,
2013-04-26 00:07:00,56.6,41.1,30.09,South,169,10.0,13.0,56,0.00,,BKN250,0.00,VWS V14.01,2013-04-26 05:07:00,
2013-04-26 00:12:00,56.1,41.1,30.09,SSE,160,11.0,11.0,57,0.00,,BKN250,0.00,VWS V14.01,2013-04-26 05:12:00,
2013-04-26 00:17:00,55.9,40.9,30.09,SSW,199,7.0,12.0,57,0.00,,BKN250,0.00,VWS V14.01,2013-04-26 05:17:00,
2013-04-26 00:22:00,55.8,41.3,30.09,South,183,12.0,14.0,58,0.00,,BKN250,0.00,VWS V14.01,2013-04-26 05:22:00,
2013-04-26 00:27:00,55.8,41.3,30.09,South,174,7.0,10.0,58,0.00,,BKN250,0.00,VWS V14.01,2013-04-26 05:27:00,
2013-04-26 00:32:00,55.7,41.2,30.09,South,185,5.0,9.0,58,0.00,,BKN250,0.00,VWS V14.01,2013-04-26 05:32:00,
2013-04-26 00:37:00,55.8,41.3,30.09,SSW,196,7.0,11.0,58,0.00,,BKN250,0.00,VWS V14.01,2013-04-26 05:37:00,
2013-04-26 00:42:00,55.7,41.2,30.09,South,175,6.0,9.0,58,0.00,,BKN250,0.00,VWS V14.01,2013-04-26 05:42:00,
2013-04-26 00:47:00,55.4,40.9,30.09,SSW,193,7.0,8.0,58,0.00,,BKN250,0.00,VWS V14.01,2013-04-26 05:47:00,
2013-04-26 00:52:00,55.2,41.1,30.09,South,183,6.0,9.0,59,0.00,,BKN250,0.00,VWS V14.01,2013-04-26 05:52:00,
2013-04-26 00:57:00,54.9,40.9,30.09,SSE,162,6.0,10.0,59,0.00,,BKN250,0.00,VWS V14.01,2013-04-26 05:57:00,
2013-04-26 01:02:00,54.5,40.9,30.10,SSE,156,7.0,11.0,60,0.00,,BKN250,0.00,VWS V14.01,2013-04-26 06:02:00,
2013-04-26 01:07:00,54.3,40.7,30.09,South,181,6.0,11.0,60,0.00,,BKN250,0.00,VWS V14.01,2013-04-26 06:07:00,
2013-04-26 01:12:00,54.2,40.6,30.09,South,169,8.0,12.0,60,0.00,,BKN250,0.00,VWS V14.01,2013-04-26 06:12:00,
2013-04-26 01:17:00,54.0,40.9,30.09,South,172,7.0,9.0,61,0.00,,BKN250,0.00,VWS V14.01,2013-04-26 06:17:00,
2013-04-26 01:22:00,53.8,40.7,30.09,SSE,156,7.0,11.0,61,0.00,,BKN250,0.00,VWS V14.01,2013-04-26 06:22:00,
2013-04-26 01:27:00,53.9,40.8,30.09,SSE,158,11.0,12.0,61,0.00,,BKN250,0.00,VWS V14.01,2013-04-26 06:27:00,
2013-04-26 01:32:00,53.9,40.8,30.09,SSW,194,7.0,14.0,61,0.00,,BKN250,0.00,VWS V14.01,2013-04-26 06:32:00,
2013-04-26 01:37:00,53.8,40.7,30.08,South,179,15.0,15.0,61,0.00,,BKN250,0.00,VWS V14.01,2013-04-26 06:37:00,
2013-04-26 01:42:00,53.7,40.6,30.08,South,174,9.0,12.0,61,0.00,,BKN250,0.00,VWS V14.01,2013-04-26 06:42:00,
2013-04-26 01:47:00,53.5,40.8,30.08,South,189,9.0,12.0,62,0.00,,BKN250,0.00,VWS V14.01,2013-04-26 06:47:00,
2013-04-26 01:52:00,53.5,40.8,30.08,South,180,6.0,12.0,62,0.00,,BKN250,0.00,VWS V14.01,2013-04-26 06:52:00,
2013-04-26 01:57:00,53.3,40.6,30.08,South,174,5.0,12.0,62,0.00,,BKN250,0.00,VWS V14.01,2013-04-26 06:57:00,
2013-04-26 02:02:00,52.9,40.7,30.08,SSW,192,4.0,9.0,63,0.00,,SCT250,0.00,VWS V14.01,2013-04-26 07:02:00,
2013-04-26 02:07:00,52.3,40.1,30.08,South,172,5.0,9.0,63,0.00,,SCT250,0.00,VWS V14.01,2013-04-26 07:07:00,
2013-04-26 02:12:00,52.1,39.9,30.08,South,174,3.0,6.0,63,0.00,,SCT250,0.00,VWS V14.01,2013-04-26 07:12:00,
2013-04-26 02:17:00,52.0,39.8,30.08,SSE,161,5.0,8.0,63,0.00,,SCT250,0.00,VWS V14.01,2013-04-26 07:17:00,
2013-04-26 02:22:00,52.0,39.8,30.08,SSW,199,6.0,7.0,63,0.00,,SCT250,0.00,VWS V14.01,2013-04-26 07:22:00,
2013-04-26 02:27:00,52.0,39.4,30.08,SSW,198,7.0,9.0,62,0.00,,SCT250,0.00,VWS V14.01,2013-04-26 07:27:00,
2013-04-26 02:32:00,52.6,39.5,30.08,SSW,195,7.0,12.0,61,0.00,,SCT250,0.00,VWS V14.01,2013-04-26 07:32:00,
2013-04-26 02:37:00,52.9,39.4,30.08,SSW,192,8.0,13.0,60,0.00,,SCT250,0.00,VWS V14.01,2013-04-26 07:37:00,
2013-04-26 02:42:00,53.2,39.3,30.07,South,176,9.0,12.0,59,0.00,,SCT250,0.00,VWS V14.01,2013-04-26 07:42:00,
2013-04-26 02:47:00,53.2,39.3,30.07,South,181,8.0,13.0,59,0.00,,SCT250,0.00,VWS V14.01,2013-04-26 07:47:00,
2013-04-26 02:52:00,53.3,38.9,30.07,South,189,9.0,13.0,58,0.00,,SCT250,0.00,VWS V14.01,2013-04-26 07:52:00,
2013-04-26 02:57:00,53.4,39.0,30.07,SSW,206,9.0,9.0,58,0.00,,SCT250,0.00,VWS V14.01,2013-04-26 07:57:00,
2013-04-26 03:02:00,53.1,38.7,30.07,South,178,11.0,11.0,58,0.00,,SCT250,0.00,VWS V14.01,2013-04-26 08:02:00,
2013-04-26 03:07:00,53.1,38.7,30.07,SSW,193,7.0,10.0,58,0.00,,SCT250,0.00,VWS V14.01,2013-04-26 08:07:00,
2013-04-26 03:12:00,52.9,38.5,30.07,SSW,192,7.0,11.0,58,0.00,,SCT250,0.00,VWS V14.01,2013-04-26 08:12:00,
2013-04-26 03:17:00,53.0,38.6,30.07,South,172,11.0,12.0,58,0.00,,SCT250,0.00,VWS V14.01,2013-04-26 08:17:00,
2013-04-26 03:22:00,53.1,38.7,30.07,South,187,9.0,12.0,58,0.00,,SCT250,0.00,VWS V14.01,2013-04-26 08:22:00,
2013-04-26 03:27:00,53.0,38.6,30.06,South,186,7.0,13.0,58,0.00,,SCT250,0.00,VWS V14.01,2013-04-26 08:27:00,
2013-04-26 03:32:00,52.9,38.5,30.06,South,189,8.0,12.0,58,0.00,,SCT250,0.00,VWS V14.01,2013-04-26 08:32:00,
2013-04-26 03:37:00,53.0,38.6,30.06,South,189,9.0,11.0,58,0.00,,SCT250,0.00,VWS V14.01,2013-04-26 08:37:00,
2013-04-26 03:42:00,53.3,38.5,30.06,South,187,9.0,12.0,57,0.00,,SCT250,0.00,VWS V14.01,2013-04-26 08:42:00,
2013-04-26 03:47:00,53.7,37.9,30.06,South,177,14.0,15.0,55,0.00,,SCT250,0.00,VWS V14.01,2013-04-26 08:47:00,
2013-04-26 03:52:00,54.0,38.2,30.05,South,182,10.0,13.0,55,0.00,,SCT250,0.00,VWS V14.01,2013-04-26 08:52:00,
2013-04-26 03:57:00,54.2,37.9,30.05,South,187,16.0,17.0,54,0.00,,SCT250,0.00,VWS V14.01,2013-04-26 08:57:00,
2013-04-26 04:02:00,54.4,38.1,30.05,South,187,7.0,13.0,54,0.00,,SCT250,0.00,VWS V14.01,2013-04-26 09:02:00,
2013-04-26 04:07:00,54.3,38.0,30.05,South,170,10.0,12.0,54,0.00,,SCT250,0.00,VWS V14.01,2013-04-26 09:07:00,
2013-04-26 04:12:00,54.5,38.2,30.05,South,185,11.0,16.0,54,0.00,,SCT250,0.00,VWS V14.01,2013-04-26 09:12:00,
2013-04-26 04:17:00,54.3,38.0,30.05,South,181,12.0,14.0,54,0.00,,SCT250,0.00,VWS V14.01,2013-04-26 09:17:00,
2013-04-26 04:22:00,54.2,37.9,30.05,SSW,193,7.0,13.0,54,0.00,,SCT250,0.00,VWS V14.01,2013-04-26 09:22:00,
2013-04-26 04:27:00,54.2,37.9,30.05,South,187,12.0,13.0,54,0.00,,SCT250,0.00,VWS V14.01,2013-04-26 09:27:00,
2013-04-26 04:33:00,54.2,37.9,30.05,South,190,15.0,15.0,54,0.00,,SCT250,0.00,VWS V14.01,2013-04-26 09:33:00,
2013-04-26 04:38:00,54.4,38.1,30.05,SSW,196,6.0,12.0,54,0.00,,SCT250,0.00,VWS V14.01,2013-04-26 09:38:00,
2013-04-26 04:43:00,54.2,37.9,30.05,South,191,7.0,16.0,54,0.00,,SCT250,0.00,VWS V14.01,2013-04-26 09:43:00,
2013-04-26 04:48:00,54.1,38.3,30.05,South,189,6.0,14.0,55,0.00,,SCT250,0.00,VWS V14.01,2013-04-26 09:48:00,
2013-04-26 04:53:00,54.1,37.8,30.05,South,191,11.0,15.0,54,0.00,,SCT250,0.00,VWS V14.01,2013-04-26 09:53:00,
2013-04-26 04:58:00,54.0,38.2,30.05,South,191,7.0,15.0,55,0.00,,SCT250,0.00,VWS V14.01,2013-04-26 09:58:00,
2013-04-26 05:03:00,53.8,38.0,30.05,South,190,10.0,12.0,55,0.00,,BKN250,0.00,VWS V14.01,2013-04-26 10:03:00,
2013-04-26 05:08:00,53.8,38.0,30.05,SSW,192,8.0,14.0,55,0.00,,BKN250,0.00,VWS V14.01,2013-04-26 10:08:00,
2013-04-26 05:13:00,53.9,37.7,30.05,South,181,11.0,14.0,54,0.00,,BKN250,0.00,VWS V14.01,2013-04-26 10:13:00,
2013-04-26 05:18:00,53.9,37.7,30.04,South,190,12.0,14.0,54,0.00,,BKN250,0.00,VWS V14.01,2013-04-26 10:18:00,
2013-04-26 05:23:00,54.0,37.3,30.04,SSW,192,8.0,15.0,53,0.00,,BKN250,0.00,VWS V14.01,2013-04-26 10:23:00,
2013-04-26 05:28:00,53.8,37.6,30.04,South,189,8.0,10.0,54,0.00,,BKN250,0.00,VWS V14.01,2013-04-26 10:28:00,
2013-04-26 05:33:00,53.7,37.5,30.04,South,181,7.0,12.0,54,0.00,,BKN250,0.00,VWS V14.01,2013-04-26 10:33:00,
2013-04-26 05:38:00,53.8,37.6,30.05,SSE,152,7.0,16.0,54,0.00,,BKN250,0.00,VWS V14.01,2013-04-26 10:38:00,
2013-04-26 05:43:00,54.0,37.8,30.04,South,170,12.0,15.0,54,0.00,,BKN250,0.00,VWS V14.01,2013-04-26 10:43:00,
2013-04-26 05:48:00,54.0,38.2,30.04,South,170,9.0,15.0,55,0.00,,BKN250,0.00,VWS V14.01,2013-04-26 10:48:00,
2013-04-26 05:53:00,53.9,38.1,30.04,South,169,11.0,14.0,55,0.00,,BKN250,0.00,VWS V14.01,2013-04-26 10:53:00,
2013-04-26 05:58:00,53.8,38.0,30.04,South,183,10.0,13.0,55,0.00,,BKN250,0.00,VWS V14.01,2013-04-26 10:58:00,
2013-04-26 06:03:00,53.7,38.4,30.04,South,186,12.0,17.0,56,0.00,,BKN250,0.00,VWS V14.01,2013-04-26 11:03:00,
2013-04-26 06:08:00,53.5,38.7,30.04,South,177,13.0,13.0,57,0.00,,BKN250,0.00,VWS V14.01,2013-04-26 11:08:00,
2013-04-26 06:13:00,53.4,38.6,30.04,South,189,8.0,12.0,57,0.00,,BKN250,0.00,VWS V14.01,2013-04-26 11:13:00,
2013-04-26 06:18:00,53.3,38.9,30.04,South,186,10.0,14.0,58,0.00,,BKN250,0.00,VWS V14.01,2013-04-26 11:18:00,
2013-04-26 06:23:00,53.2,38.8,30.04,SSW,204,10.0,12.0,58,0.00,,BKN250,0.00,VWS V14.01,2013-04-26 11:23:00,
2013-04-26 06:28:00,52.8,38.9,30.04,SSW,195,5.0,9.0,59,0.00,,BKN250,0.00,VWS V14.01,2013-04-26 11:28:00,
2013-04-26 06:33:00,52.5,39.0,30.05,SSE,164,8.0,12.0,60,0.00,,BKN250,0.00,VWS V14.01,2013-04-26 11:33:00,
2013-04-26 06:38:00,52.4,39.4,30.05,SSW,192,8.0,12.0,61,0.00,,BKN250,0.00,VWS V14.01,2013-04-26 11:38:00,
2013-04-26 06:43:00,52.5,39.5,30.05,South,189,14.0,14.0,61,0.00,,BKN250,0.00,VWS V14.01,2013-04-26 11:43:00,
2013-04-26 06:48:00,52.5,39.9,30.05,South,176,7.0,10.0,62,0.00,,BKN250,0.00,VWS V14.01,2013-04-26 11:48:00,
2013-04-26 06:53:00,52.4,39.8,30.05,South,187,8.0,14.0,62,0.00,,BKN250,0.00,VWS V14.01,2013-04-26 11:53:00,
2013-04-26 06:58:00,52.5,39.9,30.05,South,183,12.0,17.0,62,0.00,,BKN250,0.00,VWS V14.01,2013-04-26 11:58:00,
2013-04-26 07:03:00,52.8,40.2,30.05,SSW,212,9.0,17.0,62,0.00,,BKN250,0.00,VWS V14.01,2013-04-26 12:03:00,
2013-04-26 07:08:00,53.0,40.3,30.05,South,187,14.0,18.0,62,0.00,,BKN250,0.00,VWS V14.01,2013-04-26 12:08:00,
2013-04-26 07:13:00,53.2,40.5,30.05,South,172,15.0,20.0,62,0.00,,BKN250,0.00,VWS V14.01,2013-04-26 12:13:00,
2013-04-26 07:18:00,53.3,41.0,30.05,South,179,12.0,16.0,63,0.00,,BKN250,0.00,VWS V14.01,2013-04-26 12:18:00,
2013-04-26 07:23:00,53.2,41.3,30.05,South,187,15.0,16.0,64,0.00,,BKN250,0.00,VWS V14.01,2013-04-26 12:23:00,
2013-04-26 07:28:00,53.2,41.3,30.05,South,187,10.0,13.0,64,0.00,,BKN250,0.00,VWS V14.01,2013-04-26 12:28:00,
2013-04-26 07:33:00,53.2,41.8,30.06,South,185,10.0,14.0,65,0.00,,BKN250,0.00,VWS V14.01,2013-04-26 12:33:00,
2013-04-26 07:38:00,53.2,41.8,30.06,South,181,13.0,21.0,65,0.00,,BKN250,0.00,VWS V14.01,2013-04-26 12:38:00,
2013-04-26 07:43:00,53.3,41.8,30.06,South,170,15.0,20.0,65,0.00,,BKN250,0.00,VWS V14.01,2013-04-26 12:43:00,
2013-04-26 07:48:00,53.2,42.2,30.06,SSW,196,12.0,18.0,66,0.00,,BKN250,0.00,VWS V14.01,2013-04-26 12:48:00,
2013-04-26 07:53:00,53.2,42.5,30.06,SSE,167,6.0,13.0,67,0.00,,BKN250,0.00,VWS V14.01,2013-04-26 12:53:00,
2013-04-26 07:58:00,53.2,42.9,30.06,SSW,201,9.0,16.0,68,0.00,,BKN250,0.00,VWS V14.01,2013-04-26 12:58:00,
2013-04-26 08:03:00,53.3,43.0,30.06,SSW,194,10.0,16.0,68,0.00,,BKN250,0.00,VWS V14.01,2013-04-26 13:03:00,
2013-04-26 08:08:00,53.5,43.2,30.07,South,183,12.0,18.0,68,0.00,,BKN250,0.00,VWS V14.01,2013-04-26 13:08:00,
2013-04-26 08:13:00,53.5,43.2,30.07,South,170,11.0,14.0,68,0.00,,BKN250,0.00,VWS V14.01,2013-04-26 13:13:00,
2013-04-26 08:18:00,53.6,43.3,30.07,SSW,199,11.0,15.0,68,0.00,,BKN250,0.00,VWS V14.01,2013-04-26 13:18:00,
2013-04-26 08:23:00,54.0,43.7,30.07,South,187,18.0,20.0,68,0.00,,BKN250,0.00,VWS V14.01,2013-04-26 13:23:00,
2013-04-26 08:28:00,54.3,44.0,30.07,SSW,196,9.0,18.0,68,0.00,,BKN250,0.00,VWS V14.01,2013-04-26 13:28:00,
2013-04-26 08:33:00,54.5,44.5,30.07,South,188,14.0,16.0,69,0.00,,BKN250,0.00,VWS V14.01,2013-04-26 13:33:00,
2013-04-26 08:38:00,54.4,44.5,30.07,SSW,195,17.0,17.0,69,0.00,,BKN250,0.00,VWS V14.01,2013-04-26 13:38:00,
2013-04-26 08:44:00,54.5,44.9,30.07,SSW,193,9.0,14.0,70,0.00,,BKN250,0.00,VWS V14.01,2013-04-26 13:44:00,
2013-04-26 08:49:00,54.5,44.5,30.08,SW,215,8.0,16.0,69,0.00,,BKN250,0.00,VWS V14.01,2013-04-26 13:49:00,
2013-04-26 08:54:00,54.5,44.9,30.08,South,172,6.0,16.0,70,0.00,,BKN250,0.00,VWS V14.01,2013-04-26 13:54:00,
2013-04-26 08:59:00,54.6,45.4,30.08,SSW,213,9.0,13.0,71,0.00,,BKN250,0.00,VWS V14.01,2013-04-26 13:59:00,
2013-04-26 09:04:00,54.5,44.9,30.08,SSW,192,10.0,20.0,70,0.00,,BKN250,0.00,VWS V14.01,2013-04-26 14:04:00,
2013-04-26 09:09:00,54.5,44.9,30.08,SSW,201,9.0,15.0,70,0.00,,BKN250,0.00,VWS V14.01,2013-04-26 14:09:00,
2013-04-26 09:14:00,54.7,45.5,30.08,South,181,8.0,19.0,71,0.00,,BKN250,0.00,VWS V14.01,2013-04-26 14:14:00,
2013-04-26 09:19:00,55.1,45.5,30.08,South,191,16.0,26.0,70,0.00,,BKN250,0.00,VWS V14.01,2013-04-26 14:19:00,
2013-04-26 09:24:00,55.3,45.7,30.07,South,187,20.0,20.0,70,0.00,,BKN250,0.00,VWS V14.01,2013-04-26 14:24:00,
2013-04-26 09:29:00,55.4,45.4,30.08,South,185,23.0,23.0,69,0.00,,BKN250,0.00,VWS V14.01,2013-04-26 14:29:00,
2013-04-26 09:34:00,55.9,45.9,30.08,SSW,206,10.0,21.0,69,0.00,,BKN250,0.00,VWS V14.01,2013-04-26 14:34:00,
2013-04-26 09:39:00,56.1,45.7,30.08,South,179,17.0,22.0,68,0.00,,BKN250,0.00,VWS V14.01,2013-04-26 14:39:00,
2013-04-26 09:44:00,56.2,46.2,30.08,South,183,19.0,21.0,69,0.00,,BKN250,0.00,VWS V14.01,2013-04-26 14:44:00,
2013-04-26 09:49:00,56.9,46.8,30.08,South,184,14.0,20.0,69,0.00,,BKN250,0.00,VWS V14.01,2013-04-26 14:49:00,
2013-04-26 09:54:00,56.9,46.5,30.09,South,182,11.0,18.0,68,0.00,,BKN250,0.00,VWS V14.01,2013-04-26 14:54:00,
2013-04-26 09:59:00,56.8,46.4,30.09,SSW,208,12.0,22.0,68,0.00,,BKN250,0.00,VWS V14.01,2013-04-26 14:59:00,
2013-04-26 10:04:00,56.5,46.5,30.09,SSW,194,16.0,22.0,69,0.00,,BKN250,0.00,VWS V14.01,2013-04-26 15:04:00,
2013-04-26 10:09:00,56.4,46.4,30.09,South,183,11.0,18.0,69,0.00,,BKN250,0.00,VWS V14.01,2013-04-26 15:09:00,
2013-04-26 10:14:00,57.2,47.5,30.09,South,181,10.0,15.0,70,0.00,,BKN250,0.00,VWS V14.01,2013-04-26 15:14:00,
2013-04-26 10:19:00,57.5,47.4,30.09,SSW,206,17.0,19.0,69,0.00,,BKN250,0.00,VWS V14.01,2013-04-26 15:19:00,
2013-04-26 10:24:00,57.5,47.0,30.09,South,191,18.0,19.0,68,0.00,,BKN250,0.00,VWS V14.01,2013-04-26 15:24:00,
2013-04-26 10:29:00,58.1,48.4,30.09,South,182,16.0,19.0,70,0.00,,BKN250,0.00,VWS V14.01,2013-04-26 15:29:00,
2013-04-26 10:34:00,58.0,47.1,30.09,SSE,162,19.0,23.0,67,0.00,,BKN250,0.00,VWS V14.01,2013-04-26 15:34:00,
2013-04-26 10:39:00,57.9,47.0,30.09,South,178,19.0,22.0,67,0.00,,BKN250,0.00,VWS V14.01,2013-04-26 15:39:00,
2013-04-26 10:44:00,57.9,47.0,30.09,South,190,18.0,19.0,67,0.00,,BKN250,0.00,VWS V14.01,2013-04-26 15:44:00,
2013-04-26 10:49:00,58.1,47.6,30.09,South,175,15.0,22.0,68,0.00,,BKN250,0.00,VWS V14.01,2013-04-26 15:49:00,
2013-04-26 10:54:00,58.2,48.1,30.10,SSE,163,17.0,17.0,69,0.00,,BKN250,0.00,VWS V14.01,2013-04-26 15:54:00,
2013-04-26 10:59:00,58.2,47.7,30.10,South,187,13.0,18.0,68,0.00,,BKN250,0.00,VWS V14.01,2013-04-26 15:59:00,
2013-04-26 11:04:00,58.4,48.3,30.10,South,187,8.0,16.0,69,0.00,,BKN250,0.00,VWS V14.01,2013-04-26 16:04:00,
2013-04-26 11:09:00,58.6,47.7,30.10,South,187,17.0,17.0,67,0.00,,BKN250,0.00,VWS V14.01,2013-04-26 16:09:00,
2013-04-26 11:14:00,58.8,47.9,30.10,South,181,15.0,19.0,67,0.00,,BKN250,0.00,VWS V14.01,2013-04-26 16:14:00,
2013-04-26 11:19:00,59.4,48.0,30.10,SSW,192,20.0,22.0,66,0.00,,BKN250,0.00,VWS V14.01,2013-04-26 16:19:00,
2013-04-26 11:24:00,60.2,49.6,30.10,South,180,13.0,21.0,68,0.00,,BKN250,0.00,VWS V14.01,2013-04-26 16:24:00,
2013-04-26 11:29:00,60.5,49.1,30.10,SSW,197,14.0,20.0,66,0.00,,BKN250,0.00,VWS V14.01,2013-04-26 16:29:00,
2013-04-26 11:34:00,60.6,48.4,30.09,SSW,205,14.0,20.0,64,0.00,,BKN250,0.00,VWS V14.01,2013-04-26 16:34:00,
2013-04-26 11:39:00,60.5,48.7,30.09,South,190,13.0,17.0,65,0.00,,BKN250,0.00,VWS V14.01,2013-04-26 16:39:00,
2013-04-26 11:44:00,60.5,49.1,30.09,SSW,197,13.0,15.0,66,0.00,,BKN250,0.00,VWS V14.01,2013-04-26 16:44:00,
2013-04-26 11:49:00,60.6,48.4,30.09,South,172,16.0,24.0,64,0.00,,BKN250,0.00,VWS V14.01,2013-04-26 16:49:00,
2013-04-26 11:54:00,60.8,48.6,30.09,SSW,205,14.0,21.0,64,0.00,,BKN250,0.00,VWS V14.01,2013-04-26 16:54:00,
2013-04-26 11:59:00,61.0,48.8,30.09,SSE,167,12.0,18.0,64,0.00,,BKN250,0.00,VWS V14.01,2013-04-26 16:59:00,
2013-04-26 12:04:00,61.1,48.8,30.09,South,189,16.0,22.0,64,0.00,,BKN250,0.00,VWS V14.01,2013-04-26 17:04:00,
2013-04-26 12:10:00,61.1,48.8,30.09,South,187,13.0,17.0,64,0.00,,BKN250,0.00,VWS V14.01,2013-04-26 17:10:00,
2013-04-26 12:14:00,61.1,48.8,30.09,SSW,198,10.0,17.0,64,0.00,,BKN250,0.00,VWS V14.01,2013-04-26 17:14:00,
2013-04-26 12:20:00,61.5,49.6,30.09,SSW,197,12.0,17.0,65,0.00,,BKN250,0.00,VWS V14.01,2013-04-26 17:20:00,
2013-04-26 12:25:00,62.0,49.7,30.09,South,178,15.0,17.0,64,0.00,,BKN250,0.00,VWS V14.01,2013-04-26 17:25:00,
2013-04-26 12:30:00,62.5,50.2,30.09,South,191,9.0,20.0,64,0.00,,BKN250,0.00,VWS V14.01,2013-04-26 17:30:00,
2013-04-26 12:44:00,63.2,50.4,30.08,SSW,207,10.0,16.0,63,0.00,,BKN250,0.00,VWS V14.01,2013-04-26 17:44:00,
2013-04-26 12:49:00,64.0,50.3,30.08,South,187,9.0,10.0,61,0.00,,BKN250,0.00,VWS V14.01,2013-04-26 17:49:00,
2013-04-26 12:54:00,63.7,49.6,30.08,SSW,208,12.0,21.0,60,0.00,,BKN250,0.00,VWS V14.01,2013-04-26 17:54:00,
2013-04-26 12:59:00,63.8,49.2,30.08,SSW,197,8.0,14.0,59,0.00,,BKN250,0.00,VWS V14.01,2013-04-26 17:59:00,
2013-04-26 13:04:00,63.9,49.3,30.08,SSE,157,18.0,24.0,59,0.00,,BKN250,0.00,VWS V14.01,2013-04-26 18:04:00,
2013-04-26 13:09:00,63.7,49.6,30.09,South,181,10.0,17.0,60,0.00,,BKN250,0.00,VWS V14.01,2013-04-26 18:09:00,
2013-04-26 13:14:00,63.9,50.2,30.08,South,191,6.0,13.0,61,0.00,,BKN250,0.00,VWS V14.01,2013-04-26 18:14:00,
2013-04-26 13:19:00,64.3,50.1,30.08,SSW,201,7.0,16.0,60,0.00,,BKN250,0.00,VWS V14.01,2013-04-26 18:19:00,
2013-04-26 13:24:00,64.5,50.3,30.08,SSW,204,13.0,25.0,60,0.00,,BKN250,0.00,VWS V14.01,2013-04-26 18:24:00,
2013-04-26 13:29:00,64.3,50.1,30.08,SSE,160,21.0,23.0,60,0.00,,BKN250,0.00,VWS V14.01,2013-04-26 18:29:00,
2013-04-26 13:34:00,64.7,50.1,30.08,South,185,16.0,19.0,59,0.00,,BKN250,0.00,VWS V14.01,2013-04-26 18:34:00,
2013-04-26 13:39:00,64.8,50.6,30.08,South,187,17.0,20.0,60,0.00,,BKN250,0.00,VWS V14.01,2013-04-26 18:39:00,
2013-04-26 13:44:00,65.2,50.5,30.08,South,179,19.0,20.0,59,0.00,,BKN250,0.00,VWS V14.01,2013-04-26 18:44:00,
2013-04-26 13:49:00,64.0,49.4,30.08,South,176,18.0,20.0,59,0.00,,BKN250,0.00,VWS V14.01,2013-04-26 18:49:00,
2013-04-26 13:54:00,63.5,48.9,30.08,South,183,23.0,23.0,59,0.00,,BKN250,0.00,VWS V14.01,2013-04-26 18:54:00,
2013-04-26 13:59:00,63.4,50.2,30.08,South,178,17.0,26.0,62,0.00,,BKN250,0.00,VWS V14.01,2013-04-26 18:59:00,
2013-04-26 14:04:00,63.4,49.7,30.08,SSE,162,12.0,25.0,61,0.00,,BKN250,0.00,VWS V14.01,2013-04-26 19:04:00,
2013-04-26 14:09:00,63.4,49.3,30.08,South,191,20.0,23.0,60,0.00,,BKN250,0.00,VWS V14.01,2013-04-26 19:09:00,
2013-04-26 14:14:00,63.1,49.5,30.08,SW,214,15.0,18.0,61,0.00,,BKN250,0.00,VWS V14.01,2013-04-26 19:14:00,
2013-04-26 14:19:00,63.6,50.4,30.08,SSW,198,7.0,18.0,62,0.00,,BKN250,0.00,VWS V14.01,2013-04-26 19:19:00,
2013-04-26 14:24:00,63.9,49.8,30.08,SW,229,16.0,16.0,60,0.00,,BKN250,0.00,VWS V14.01,2013-04-26 19:24:00,
2013-04-26 14:29:00,63.9,50.6,30.08,South,189,12.0,18.0,62,0.00,,BKN250,0.00,VWS V14.01,2013-04-26 19:29:00,
2013-04-26 14:34:00,64.1,49.5,30.08,SSW,213,7.0,12.0,59,0.00,,BKN250,0.00,VWS V14.01,2013-04-26 19:34:00,
2013-04-26 14:39:00,64.4,50.2,30.08,SSW,205,7.0,12.0,60,0.00,,BKN250,0.00,VWS V14.01,2013-04-26 19:39:00,
2013-04-26 14:45:00,64.2,50.0,30.08,South,191,18.0,18.0,60,0.00,,BKN250,0.00,VWS V14.01,2013-04-26 19:45:00,
2013-04-26 14:50:00,64.3,51.9,30.08,SSE,157,17.0,17.0,64,0.00,,BKN250,0.00,VWS V14.01,2013-04-26 19:50:00,
2013-04-26 14:55:00,64.3,51.0,30.08,SSW,204,9.0,18.0,62,0.00,,BKN250,0.00,VWS V14.01,2013-04-26 19:55:00,
2013-04-26 15:00:00,64.2,51.4,30.08,South,177,14.0,16.0,63,0.00,,BKN250,0.00,VWS V14.01,2013-04-26 20:00:00,
2013-04-26 15:05:00,64.4,51.1,30.08,South,184,8.0,16.0,62,0.00,,BKN250,0.00,VWS V14.01,2013-04-26 20:05:00,
2013-04-26 15:10:00,64.3,51.0,30.08,South,186,7.0,12.0,62,0.00,,BKN250,0.00,VWS V14.01,2013-04-26 20:10:00,
2013-04-26 15:15:00,64.5,52.1,30.08,SSW,204,12.0,18.0,64,0.00,,BKN250,0.00,VWS V14.01,2013-04-26 20:15:00,
2013-04-26 15:20:00,63.7,50.0,30.08,SSW,192,12.0,17.0,61,0.00,,BKN250,0.00,VWS V14.01,2013-04-26 20:20:00,
2013-04-26 15:25:00,64.3,50.6,30.08,SSW,210,13.0,18.0,61,0.00,,BKN250,0.00,VWS V14.01,2013-04-26 20:25:00,
2013-04-26 15:30:00,64.4,50.7,30.08,South,191,10.0,13.0,61,0.00,,BKN250,0.00,VWS V14.01,2013-04-26 20:30:00,
2013-04-26 15:35:00,63.9,50.2,30.08,South,185,12.0,17.0,61,0.00,,BKN250,0.00,VWS V14.01,2013-04-26 20:35:00,
2013-04-26 15:40:00,63.7,51.3,30.08,South,188,9.0,13.0,64,0.00,,BKN250,0.00,VWS V14.01,2013-04-26 20:40:00,
2013-04-26 15:45:00,63.7,50.9,30.08,SSW,194,18.0,19.0,63,0.00,,BKN250,0.00,VWS V14.01,2013-04-26 20:45:00,
2013-04-26 15:50:00,63.2,50.4,30.08,South,186,17.0,21.0,63,0.00,,BKN250,0.00,VWS V14.01,2013-04-26 20:50:00,
2013-04-26 15:55:00,63.8,51.0,30.08,South,189,15.0,20.0,63,0.00,,BKN250,0.00,VWS V14.01,2013-04-26 20:55:00,
2013-04-26 16:00:00,63.9,50.6,30.08,SW,219,13.0,17.0,62,0.00,,BKN250,0.00,VWS V14.01,2013-04-26 21:00:00,
2013-04-26 16:05:00,63.3,50.9,30.08,SSW,199,12.0,17.0,64,0.00,,BKN250,0.00,VWS V14.01,2013-04-26 21:05:00,
2013-04-26 16:10:00,63.0,50.7,30.08,SSW,195,19.0,19.0,64,0.00,,BKN250,0.00,VWS V14.01,2013-04-26 21:10:00,
2013-04-26 16:15:00,62.7,50.8,30.08,SSW,210,11.0,15.0,65,0.00,,BKN250,0.00,VWS V14.01,2013-04-26 21:15:00,
2013-04-26 16:20:00,62.4,50.5,30.08,South,175,10.0,18.0,65,0.00,,BKN250,0.00,VWS V14.01,2013-04-26 21:20:00,
2013-04-26 16:25:00,61.9,50.4,30.09,South,188,14.0,22.0,66,0.00,,BKN250,0.00,VWS V14.01,2013-04-26 21:25:00,
2013-04-26 16:30:00,61.8,50.3,30.09,South,189,17.0,22.0,66,0.00,,BKN250,0.00,VWS V14.01,2013-04-26 21:30:00,
2013-04-26 16:35:00,61.5,50.0,30.09,South,170,16.0,20.0,66,0.00,,BKN250,0.00,VWS V14.01,2013-04-26 21:35:00,
2013-04-26 16:40:00,61.0,49.6,30.09,South,173,15.0,19.0,66,0.00,,BKN250,0.00,VWS V14.01,2013-04-26 21:40:00,
2013-04-26 16:45:00,60.7,49.7,30.10,South,178,16.0,18.0,67,0.00,,BKN250,0.00,VWS V14.01,2013-04-26 21:45:00,
2013-04-26 16:50:00,60.6,49.2,30.10,SSW,195,12.0,18.0,66,0.00,,BKN250,0.00,VWS V14.01,2013-04-26 21:50:00,
2013-04-26 16:55:00,60.9,49.5,30.10,South,174,14.0,21.0,66,0.00,,BKN250,0.00,VWS V14.01,2013-04-26 21:55:00,
2013-04-26 17:00:00,60.5,49.1,30.10,SSW,196,12.0,20.0,66,0.00,,BKN250,0.00,VWS V14.01,2013-04-26 22:00:00,
2013-04-26 17:05:00,60.0,49.0,30.11,SW,222,11.0,18.0,67,0.00,,BKN250,0.00,VWS V14.01,2013-04-26 22:05:00,
2013-04-26 17:10:00,60.0,49.0,30.11,South,188,11.0,17.0,67,0.00,,BKN250,0.00,VWS V14.01,2013-04-26 22:10:00,
2013-04-26 17:15:00,60.3,49.3,30.11,SW,215,9.0,11.0,67,0.00,,BKN250,0.00,VWS V14.01,2013-04-26 22:15:00,
2013-04-26 17:20:00,60.6,49.6,30.11,SSE,167,9.0,15.0,67,0.00,,BKN250,0.00,VWS V14.01,2013-04-26 22:20:00,
2013-04-26 17:25:00,60.5,49.1,30.11,South,187,9.0,17.0,66,0.00,,BKN250,0.00,VWS V14.01,2013-04-26 22:25:00,
2013-04-26 17:30:00,60.4,49.4,30.11,SSW,192,11.0,13.0,67,0.00,,BKN250,0.00,VWS V14.01,2013-04-26 22:30:00,
2013-04-26 17:35:00,60.4,49.4,30.11,SSW,200,10.0,14.0,67,0.00,,BKN250,0.00,VWS V14.01,2013-04-26 22:35:00,
2013-04-26 17:40:00,60.3,48.9,30.11,SSE,164,9.0,13.0,66,0.00,,BKN250,0.00,VWS V14.01,2013-04-26 22:40:00,
2013-04-26 17:45:00,60.3,48.9,30.11,South,183,10.0,13.0,66,0.00,,BKN250,0.00,VWS V14.01,2013-04-26 22:45:00,
2013-04-26 17:50:00,60.4,49.4,30.11,South,177,11.0,12.0,67,0.00,,BKN250,0.00,VWS V14.01,2013-04-26 22:50:00,
2013-04-26 17:56:00,60.5,49.1,30.10,SSE,162,7.0,14.0,66,0.00,,BKN250,0.00,VWS V14.01,2013-04-26 22:56:00,
2013-04-26 18:01:00,60.3,48.9,30.11,South,181,5.0,9.0,66,0.00,,BKN250,0.00,VWS V14.01,2013-04-26 23:01:00,
2013-04-26 18:06:00,60.3,48.5,30.10,SSE,168,9.0,14.0,65,0.00,,BKN250,0.00,VWS V14.01,2013-04-26 23:06:00,
2013-04-26 18:11:00,60.4,49.0,30.10,South,177,9.0,14.0,66,0.00,,BKN250,0.00,VWS V14.01,2013-04-26 23:11:00,
2013-04-26 18:16:00,60.1,48.7,30.10,South,191,7.0,11.0,66,0.00,,BKN250,0.00,VWS V14.01,2013-04-26 23:16:00,
2013-04-26 18:21:00,60.2,48.4,30.11,South,170,10.0,15.0,65,0.00,,BKN250,0.00,VWS V14.01,2013-04-26 23:21:00,
2013-04-26 18:26:00,60.0,48.6,30.10,South,190,5.0,13.0,66,0.00,,BKN250,0.00,VWS V14.01,2013-04-26 23:26:00,
2013-04-26 18:31:00,60.0,48.2,30.11,SSW,193,9.0,14.0,65,0.00,,BKN250,0.00,VWS V14.01,2013-04-26 23:31:00,
2013-04-26 18:36:00,59.9,48.1,30.11,South,191,9.0,9.0,65,0.00,,BKN250,0.00,VWS V14.01,2013-04-26 23:36:00,
2013-04-26 18:41:00,59.8,48.0,30.11,South,183,9.0,15.0,65,0.00,,BKN250,0.00,VWS V14.01,2013-04-26 23:41:00,
2013-04-26 18:46:00,59.6,48.2,30.11,South,184,9.0,15.0,66,0.00,,BKN250,0.00,VWS V14.01,2013-04-26 23:46:00,
2013-04-26 18:51:00,59.4,48.0,30.11,South,183,9.0,12.0,66,0.00,,BKN250,0.00,VWS V14.01,2013-04-26 23:51:00,
2013-04-26 19:05:00,59.0,47.7,30.11,SSW,208,9.0,13.0,66,0.00,,BKN250,0.00,VWS V14.01,2013-04-27 00:05:00,
2013-04-26 19:10:00,58.7,47.8,30.11,SSW,209,7.0,14.0,67,0.00,,BKN250,0.00,VWS V14.01,2013-04-27 00:10:00,
2013-04-26 19:15:00,58.5,48.0,30.11,SSW,192,7.0,13.0,68,0.00,,BKN250,0.00,VWS V14.01,2013-04-27 00:15:00,
2013-04-26 19:20:00,58.2,47.7,30.11,South,186,8.0,13.0,68,0.00,,BKN250,0.00,VWS V14.01,2013-04-27 00:20:00,
2013-04-26 19:25:00,57.9,47.8,30.11,SSE,164,10.0,12.0,69,0.00,,BKN250,0.00,VWS V14.01,2013-04-27 00:25:00,
2013-04-26 19:30:00,57.6,47.5,30.11,South,170,12.0,14.0,69,0.00,,BKN250,0.00,VWS V14.01,2013-04-27 00:30:00,
2013-04-26 19:35:00,57.3,47.2,30.12,SSW,199,10.0,12.0,69,0.00,,BKN250,0.00,VWS V14.01,2013-04-27 00:35:00,
2013-04-26 19:41:00,56.8,47.5,30.12,South,173,10.0,13.0,71,0.00,,BKN250,0.00,VWS V14.01,2013-04-27 00:41:00,
2013-04-26 19:46:00,56.4,47.5,30.12,South,187,7.0,10.0,72,0.00,,BKN250,0.00,VWS V14.01,2013-04-27 00:46:00,
2013-04-26 19:51:00,56.1,47.2,30.12,SSW,197,7.0,12.0,72,0.00,,BKN250,0.00,VWS V14.01,2013-04-27 00:51:00,
2013-04-26 19:56:00,55.9,47.4,30.12,SSW,193,8.0,10.0,73,0.00,,BKN250,0.00,VWS V14.01,2013-04-27 00:56:00,
2013-04-26 20:01:00,55.7,47.2,30.12,South,186,15.0,18.0,73,0.00,,SCT250,0.00,VWS V14.01,2013-04-27 01:01:00,
2013-04-26 20:06:00,55.2,47.4,30.12,South,191,11.0,12.0,75,0.00,,SCT250,0.00,VWS V14.01,2013-04-27 01:06:00,
2013-04-26 20:11:00,54.5,47.1,30.13,South,170,8.0,16.0,76,0.00,,SCT250,0.00,VWS V14.01,2013-04-27 01:11:00,
2013-04-26 20:16:00,53.9,46.9,30.13,South,185,8.0,15.0,77,0.00,,SCT250,0.00,VWS V14.01,2013-04-27 01:16:00,
2013-04-26 20:21:00,53.5,46.8,30.13,South,177,10.0,17.0,78,0.00,,SCT250,0.00,VWS V14.01,2013-04-27 01:21:00,
2013-04-26 20:26:00,53.2,46.9,30.13,South,184,10.0,12.0,79,0.00,,SCT250,0.00,VWS V14.01,2013-04-27 01:26:00,
2013-04-26 20:31:00,52.9,46.9,30.13,SSW,193,7.0,10.0,80,0.00,,SCT250,0.00,VWS V14.01,2013-04-27 01:31:00,
2013-04-26 20:36:00,52.6,46.9,30.13,South,187,12.0,12.0,81,0.00,,SCT250,0.00,VWS V14.01,2013-04-27 01:36:00,
2013-04-26 20:41:00,52.3,46.7,30.14,South,172,9.0,10.0,81,0.00,,SCT250,0.00,VWS V14.01,2013-04-27 01:41:00,
2013-04-26 20:46:00,52.2,46.5,30.14,South,181,5.0,11.0,81,0.00,,SCT250,0.00,VWS V14.01,2013-04-27 01:46:00,
2013-04-26 20:51:00,52.0,46.7,30.14,South,182,7.0,11.0,82,0.00,,SCT250,0.00,VWS V14.01,2013-04-27 01:51:00,
2013-04-26 20:56:00,51.8,46.5,30.14,South,170,5.0,6.0,82,0.00,,SCT250,0.00,VWS V14.01,2013-04-27 01:56:00,
2013-04-26 21:01:00,51.5,46.5,30.15,South,184,10.0,12.0,83,0.00,,SCT250,0.00,VWS V14.01,2013-04-27 02:01:00,
2013-04-26 21:06:00,51.4,46.4,30.15,South,183,5.0,7.0,83,0.00,,SCT250,0.00,VWS V14.01,2013-04-27 02:06:00,
2013-04-26 21:11:00,51.2,46.2,30.15,South,185,6.0,10.0,83,0.00,,SCT250,0.00,VWS V14.01,2013-04-27 02:11:00,
2013-04-26 21:16:00,51.0,46.3,30.16,South,182,8.0,8.0,84,0.00,,SCT250,0.00,VWS V14.01,2013-04-27 02:16:00,
2013-04-26 21:21:00,50.8,46.2,30.16,South,187,5.0,7.0,84,0.00,,SCT250,0.00,VWS V14.01,2013-04-27 02:21:00,
2013-04-26 21:26:00,50.7,46.0,30.16,South,187,4.0,7.0,84,0.00,,SCT250,0.00,VWS V14.01,2013-04-27 02:26:00,
2013-04-26 21:31:00,50.5,46.2,30.16,South,179,4.0,5.0,85,0.00,,SCT250,0.00,VWS V14.01,2013-04-27 02:31:00,
2013-04-26 21:36:00,50.3,46.0,30.16,South,185,6.0,6.0,85,0.00,,SCT250,0.00,VWS V14.01,2013-04-27 02:36:00,
2013-04-26 21:41:00,50.1,45.8,30.17,South,186,4.0,6.0,85,0.00,,SCT250,0.00,VWS V14.01,2013-04-27 02:41:00,
2013-04-26 21:46:00,49.9,45.6,30.17,South,185,5.0,6.0,85,0.00,,SCT250,0.00,VWS V14.01,2013-04-27 02:46:00,
2013-04-26 21:51:00,49.8,45.8,30.17,South,183,4.0,8.0,86,0.00,,SCT250,0.00,VWS V14.01,2013-04-27 02:51:00,
2013-04-26 21:56:00,49.6,45.6,30.17,South,186,4.0,6.0,86,0.00,,SCT250,0.00,VWS V14.01,2013-04-27 02:56:00,
2013-04-26 22:01:00,49.5,45.5,30.17,South,182,3.0,4.0,86,0.00,,FEW250,0.00,VWS V14.01,2013-04-27 03:01:00,
2013-04-26 22:06:00,49.3,45.3,30.17,SSW,194,5.0,5.0,86,0.00,,FEW250,0.00,VWS V14.01,2013-04-27 03:06:00,
2013-04-26 22:11:00,49.3,45.6,30.17,South,175,3.0,6.0,87,0.00,,FEW250,0.00,VWS V14.01,2013-04-27 03:11:00,
2013-04-26 22:16:00,49.2,45.5,30.17,SSW,193,4.0,6.0,87,0.00,,FEW250,0.00,VWS V14.01,2013-04-27 03:16:00,
2013-04-26 22:21:00,49.0,45.3,30.17,South,187,4.0,4.0,87,0.00,,FEW250,0.00,VWS V14.01,2013-04-27 03:21:00,
2013-04-26 22:26:00,48.8,45.1,30.18,SSW,197,5.0,5.0,87,0.00,,FEW250,0.00,VWS V14.01,2013-04-27 03:26:00,
2013-04-26 22:31:00,48.7,45.3,30.18,SSW,196,3.0,4.0,88,0.00,,FEW250,0.00,VWS V14.01,2013-04-27 03:31:00,
2013-04-26 22:36:00,48.8,45.4,30.18,SSW,200,7.0,7.0,88,0.00,,FEW250,0.00,VWS V14.01,2013-04-27 03:36:00,
2013-04-26 22:41:00,48.9,45.5,30.17,SSW,197,3.0,7.0,88,0.00,,FEW250,0.00,VWS V14.01,2013-04-27 03:41:00,
2013-04-26 22:46:00,48.8,45.4,30.17,South,191,5.0,5.0,88,0.00,,FEW250,0.00,VWS V14.01,2013-04-27 03:46:00,
2013-04-26 22:51:00,48.5,45.1,30.17,South,189,4.0,5.0,88,0.00,,FEW250,0.00,VWS V14.01,2013-04-27 03:51:00,
2013-04-26 22:56:00,48.3,44.9,30.17,SSW,203,3.0,6.0,88,0.00,,FEW250,0.00,VWS V14.01,2013-04-27 03:56:00,
2013-04-26 23:01:00,48.2,45.1,30.17,SSW,201,4.0,5.0,89,0.00,,FEW250,0.00,VWS V14.01,2013-04-27 04:01:00,
2013-04-26 23:04:00,48.3,45.2,30.17,SSW,196,3.0,4.0,89,0.00,,FEW250,0.00,VWS V14.01,2013-04-27 04:04:00,
2013-04-26 23:09:00,48.4,45.3,30.17,SSW,193,3.0,4.0,89,0.00,,FEW250,0.00,VWS V14.01,2013-04-27 04:09:00,
2013-04-26 23:14:00,48.3,45.2,30.17,South,191,3.0,4.0,89,0.00,,FEW250,0.00,VWS V14.01,2013-04-27 04:14:00,
2013-04-26 23:19:00,48.2,45.1,30.16,South,187,5.0,5.0,89,0.00,,FEW250,0.00,VWS V14.01,2013-04-27 04:19:00,
2013-04-26 23:24:00,48.2,45.1,30.16,South,191,5.0,6.0,89,0.00,,FEW250,0.00,VWS V14.01,2013-04-27 04:24:00,
2013-04-26 23:29:00,48.3,45.5,30.16,South,185,4.0,6.0,90,0.00,,FEW250,0.00,VWS V14.01,2013-04-27 04:29:00,
2013-04-26 23:34:00,48.6,45.8,30.16,South,184,4.0,5.0,90,0.00,,FEW250,0.00,VWS V14.01,2013-04-27 04:34:00,
2013-04-26 23:39:00,48.9,46.1,30.16,South,185,4.0,6.0,90,0.00,,FEW250,0.00,VWS V14.01,2013-04-27 04:39:00,
2013-04-26 23:44:00,49.0,45.9,30.16,SSW,196,3.0,4.0,89,0.00,,FEW250,0.00,VWS V14.01,2013-04-27 04:44:00,
2013-04-26 23:49:00,49.1,46.0,30.17,South,179,3.0,4.0,89,0.00,,FEW250,0.00,VWS V14.01,2013-04-27 04:49:00,
2013-04-26 23:54:00,49.2,46.1,30.17,South,179,0.0,1.0,89,0.00,,FEW250,0.00,VWS V14.01,2013-04-27 04:54:00,
2013-04-26 23:59:00,49.4,46.3,30.17,South,185,2.0,5.0,89,0.00,,FEW250,0.00,VWS V14.01,2013-04-27 04:59:00,